[[{"header":{"parameterUnit":"m.s-1","parameterCategory":1,"la1":30.2991,"la2":30.254,"lo1":-89.0895,"lo2":-89.0444,"dy":0.0017,"dx":0.0017,"nx":28,"ny":28,"refTime":"2025-06-14T21:00:00:Z","depth":0,"parameterNumber":2,"parameterNumberName":"U-component_of_WINDS"},"data":[0,0,0,0,0,0,0,0,0,0,0,0,0,0,0,0,0,0,0,0,0,0,0,0,0,0,0,0,0,0,0,0,0,0,0,0,0,0,0,0,0,0,0,0,0,0,0,0,0,0,0,0,0,0,0,0,0,0,1.907,1.9071,0,1.9229,1.9231,1.9233,1.9208,1.9205,1.9202,1.92,1.9366,1.9373,1.938,0,0,0,0,0,0,0,0,0,0,0,0,0,1.8746,1.8752,1.9069,1.9071,1.9073,1.9229,1.9231,1.9233,1.9208,1.9205,1.9202,1.9198,1.9364,1.9372,1.9381,0,0,0,0,0,0,0,0,0,0,0,0,0,1.8894,1.8754,1.9069,1.908,1.9082,1.9228,1.9231,1.9234,1.9209,1.9205,1.9201,1.9197,1.9361,1.9371,1.9382,1.9528,0,0,1.9414,1.9418,0,0,0,0,0,0,0,0,1.8886,1.8906,1.9076,1.9079,1.9082,1.9194,1.9178,1.9333,1.921,1.9161,1.92,1.9195,1.9313,1.9327,1.9366,1.9536,1.9543,1.9415,1.9421,1.9426,1.9428,0,0,0,0,0,0,0,1.8876,1.8899,1.9133,1.9079,1.9082,1.9077,1.9094,1.9207,1.9258,1.9165,1.9163,1.9182,1.9313,1.9356,1.937,1.9546,1.9414,1.9424,1.943,1.9434,1.9845,1.985,0,0,0,0,0,0,1.8862,1.8891,1.9128,1.9137,1.8972,1.9086,1.9105,1.9163,1.9257,1.9267,1.9186,1.9181,1.934,1.9357,1.9375,1.9554,1.9425,1.9435,1.9441,1.9841,1.9846,1.9851,0,0,0,0,0,0,1.8855,1.8883,1.9121,1.9014,1.9044,1.9096,1.9161,1.9168,1.921,1.9272,1.9282,1.922,1.9337,1.9361,1.949,1.9559,1.944,1.9449,1.9835,1.9842,1.9849,1.9912,0,0,0,0,0,0,1.8846,1.8881,1.8937,1.9015,1.9049,1.9233,1.9165,1.9174,1.9228,1.9223,1.9306,1.9316,1.9336,1.9475,1.9501,1.9572,1.9458,1.9829,1.9838,1.9847,1.9904,1.992,1.9934,0,0,0,0,0,1.8834,1.8949,1.894,1.8968,1.912,1.9237,1.9257,1.9276,1.9233,1.929,1.933,1.9314,1.9547,1.9488,1.9517,1.9592,1.9825,1.9836,1.9846,1.9897,1.9917,1.9934,0,0,0,0,0,0,1.8878,1.8959,1.895,1.9093,1.9158,1.9233,1.9305,1.9296,1.9376,1.9368,1.9389,1.9408,1.954,1.9579,1.9512,1.9739,1.968,1.9697,1.9709,1.9729,1.9743,1.9732,1.9466,0,0,0,0,0,1.8904,1.8991,1.9058,1.9177,1.921,1.9252,1.9304,1.9313,1.9382,1.941,1.9459,1.9527,1.9616,1.9674,1.9759,1.9909,1.9927,1.9975,1.999,2.0002,2.0016,2.0099,2.0121,1.9886,1.9885,1.9885,0,0,1.8959,1.9014,1.9068,1.9188,1.9239,1.933,1.9276,1.9374,1.9442,1.9425,1.9551,1.9589,1.9667,1.9807,1.9872,1.9844,2.0085,2.0015,2.0024,2.0032,2.0112,2.0134,2.0154,1.9893,1.9891,1.989,0,0,1.9106,1.9156,1.9261,1.9314,1.9393,1.9419,1.9445,1.9521,1.9545,1.9671,1.9661,1.9742,1.9894,1.995,1.9999,2.0167,2.0155,2.0194,2.0273,2.0353,2.0372,2.0388,2.045,2.0471,2.0208,2.0208,2.0208,0,1.9165,1.9301,1.9317,1.9417,1.947,1.9457,1.9565,1.9615,1.9718,1.9756,1.9722,1.9913,1.9965,2.0119,2.0159,2.0199,2.0229,2.0185,2.0368,2.0384,2.04,2.0459,2.0481,2.0212,2.0212,2.0211,2.0211,0,1.937,1.9464,1.954,1.9639,1.97,1.9803,1.9836,1.9897,1.99,1.9931,2.006,2.0121,2.0218,2.0255,2.026,2.041,2.039,2.0362,2.0304,2.0427,2.0482,2.0505,2.0218,2.0217,2.0216,2.0214,0,0,1.955,1.9655,1.9683,1.9728,1.9813,1.9887,1.999,2.0084,2.0136,2.0207,2.0295,2.0424,2.0398,2.0453,2.0464,2.0534,2.0665,2.0498,2.05,2.0528,2.0835,2.0857,2.0882,2.0657,2.0661,2.0664,2.0829,0,1.9706,1.9887,1.9904,2.0067,2.0155,2.0143,2.0233,2.0296,2.0327,2.0407,2.0441,2.0533,2.0492,2.0525,2.0594,2.0634,2.0727,2.0622,2.074,2.0744,2.0722,2.0911,2.0934,2.1087,2.0851,2.0854,2.0857,0,1.9913,1.9989,2.016,2.0233,2.0271,2.0351,2.0439,2.0515,2.0586,2.0604,2.0665,2.0666,2.0773,2.0709,2.0857,2.0786,2.0835,2.0862,2.0868,2.0881,2.0809,2.093,2.1136,2.1159,2.0891,2.0888,2.0886,0,2.0028,2.0174,2.0295,2.0333,2.0422,2.0478,2.0518,2.0585,2.064,2.0717,2.0754,2.0843,2.0892,2.0961,2.0987,2.0937,2.1134,2.1072,2.1153,2.1153,2.1197,2.1194,2.1414,2.1226,2.1225,2.1225,2.1225,0,2.0202,2.0307,2.0348,2.0423,2.0541,2.056,2.0676,2.0713,2.0773,2.0855,2.0851,2.0928,2.0957,2.104,2.106,2.1181,2.1203,2.1221,2.1226,2.1222,2.122,2.1256,2.1247,2.1231,2.123,2.1229,2.1228,0,2.0351,2.0383,2.0515,2.0587,2.0607,2.0691,2.0754,2.0827,2.0856,2.096,2.0986,2.1033,2.113,2.1162,2.128,2.1294,2.1434,2.1429,2.141,2.1412,2.1491,2.1484,2.1744,2.1779,2.1566,2.1568,2.157,0,2.0461,2.0541,2.0622,2.0676,2.0718,2.0806,2.0862,2.0884,2.0943,2.103,2.1093,2.1188,2.1267,2.1422,2.1468,2.1558,2.1556,2.164,2.1569,2.1564,2.1559,2.1554,2.1563,2.1654,2.1656,2.1658,2.166,0,2.0652,2.0663,2.0744,2.0831,2.0898,2.0968,2.1035,2.108,2.1112,2.1179,2.1278,2.1338,2.1458,2.1554,2.1646,2.1687,2.168,2.1681,2.1705,2.1704,2.169,2.17,2.1448,2.1676,2.1674,2.1673,2.1672,2.1671,2.0786,2.0857,2.0925,2.1016,2.1068,2.1131,2.1203,2.1241,2.1323,2.1422,2.143,2.1537,2.1606,2.1728,2.1775,2.1859,2.1836,2.187,2.1879,2.1887,2.1894,2.1675,2.1876,2.1876,2.1875,2.1875,2.1874,0,2.0977,2.102,2.1103,2.1197,2.1269,2.1253,2.1327,2.1388,2.1482,2.1547,2.1623,2.1737,2.183,2.1882,2.1975,2.2033,2.2032,2.2057,2.2054,2.2064,2.1909,2.188,2.2056,2.2056,2.2056,2.2056,2.2056,2.2056,2.1085,2.1206,2.1225,2.1372,2.1414,2.1518,2.1562,2.162,2.1672,2.1799,2.1876,2.1908,2.1969,2.2066,2.2151,2.2164,2.2199,2.2227,2.2237,2.2093,2.2074,2.2057,2.2029,2.2234,2.2234,2.2385,2.2386,2.2387]},{"header":{"parameterUnit":"m.s-1","parameterCategory":1,"la1":30.2991,"la2":30.254,"lo1":-89.0895,"lo2":-89.0444,"dy":0.0017,"dx":0.0017,"nx":28,"ny":28,"refTime":"2025-06-14T21:00:00:Z","depth":0,"parameterNumber":3,"parameterNumberName":"V-component_of_WINDS"},"data":[0,0,0,0,0,0,0,0,0,0,0,0,0,0,0,0,0,0,0,0,0,0,0,0,0,0,0,0,0,0,0,0,0,0,0,0,0,0,0,0,0,0,0,0,0,0,0,0,0,0,0,0,0,0,0,0,0,0,2.7297,2.7298,0,2.7409,2.741,2.7411,2.7376,2.7374,2.7371,2.7369,2.7485,2.749,2.7495,0,0,0,0,0,0,0,0,0,0,0,0,0,2.7055,2.706,2.7297,2.7298,2.73,2.7408,2.741,2.7412,2.7376,2.7373,2.7371,2.7368,2.7483,2.7489,2.7496,0,0,0,0,0,0,0,0,0,0,0,0,0,2.7163,2.7061,2.7297,2.7295,2.7296,2.7408,2.741,2.7412,2.7377,2.7373,2.737,2.7366,2.7481,2.7489,2.7497,2.7617,0,0,2.7521,2.7524,0,0,0,0,0,0,0,0,2.7157,2.7172,2.7294,2.7296,2.7297,2.7375,2.7367,2.7481,2.7378,2.7346,2.7369,2.7365,2.7451,2.7461,2.749,2.7623,2.7628,2.7522,2.7527,2.753,2.7532,0,0,0,0,0,0,0,2.7149,2.7167,2.7341,2.7296,2.7298,2.729,2.7301,2.7389,2.7418,2.7349,2.7347,2.736,2.7451,2.7483,2.7493,2.7629,2.7522,2.7529,2.7533,2.7537,2.7868,2.7871,0,0,0,0,0,0,2.7141,2.7161,2.7338,2.7345,2.7217,2.7297,2.731,2.7353,2.7416,2.7423,2.7363,2.7358,2.7471,2.7483,2.7497,2.7643,2.753,2.7537,2.7542,2.7864,2.7868,2.7873,0,0,0,0,0,0,2.7136,2.7157,2.7333,2.7252,2.7274,2.7305,2.7354,2.7357,2.7389,2.7427,2.7432,2.739,2.7469,2.7485,2.7588,2.7647,2.7541,2.7548,2.7859,2.7865,2.7871,2.7936,0,0,0,0,0,0,2.7129,2.7155,2.7201,2.7253,2.7278,2.7422,2.7358,2.7362,2.7402,2.7397,2.7454,2.746,2.7467,2.7576,2.7596,2.7656,2.7554,2.7854,2.7862,2.7869,2.7929,2.7944,2.7957,0,0,0,0,0,2.712,2.7215,2.7204,2.7225,2.7336,2.7426,2.744,2.7446,2.7407,2.7454,2.7479,2.7458,2.7637,2.7587,2.7609,2.7672,2.785,2.7859,2.7868,2.7923,2.7941,2.7956,0,0,0,0,0,0,2.717,2.7222,2.721,2.7324,2.7371,2.7419,2.7478,2.7465,2.7524,2.7516,2.7522,2.7535,2.764,2.7666,2.7609,2.7792,2.7738,2.7752,2.7772,2.7789,2.7803,2.7795,2.7561,0,0,0,0,0,2.7194,2.7261,2.7304,2.7401,2.7424,2.7448,2.7487,2.7487,2.7536,2.7556,2.7588,2.7636,2.7703,2.7747,2.7811,2.7932,2.7945,2.7986,2.8,2.8011,2.8024,2.8091,2.811,2.7902,2.7902,2.7902,0,0,2.7244,2.7281,2.7324,2.7412,2.7448,2.7518,2.7464,2.7541,2.7594,2.7567,2.7666,2.7691,2.7746,2.7858,2.7909,2.7883,2.8083,2.8023,2.8031,2.8038,2.8102,2.8122,2.8139,2.7909,2.7907,2.7906,0,0,2.7373,2.7407,2.7493,2.753,2.7585,2.7599,2.762,2.7671,2.7687,2.7786,2.7767,2.783,2.7945,2.7985,2.8021,2.8165,2.8148,2.8185,2.8257,2.8323,2.8339,2.8354,2.8407,2.8425,2.8197,2.8197,2.8197,0,2.743,2.7535,2.7538,2.7617,2.7657,2.7635,2.7722,2.7758,2.7831,2.7859,2.7828,2.7973,2.8008,2.813,2.8165,2.8194,2.8218,2.8179,2.8336,2.8351,2.8365,2.8415,2.8435,2.8201,2.8201,2.82,2.82,0,2.7602,2.7675,2.7737,2.7809,2.7855,2.7937,2.7954,2.8,2.7997,2.8015,2.8117,2.8158,2.823,2.8259,2.8256,2.8381,2.8363,2.8334,2.828,2.8389,2.8436,2.8455,2.8207,2.8206,2.8205,2.8204,0,0,2.7766,2.7838,2.7861,2.7893,2.7952,2.8009,2.8091,2.8161,2.8202,2.8253,2.8322,2.842,2.8394,2.8434,2.8436,2.8493,2.8606,2.8457,2.8459,2.8485,2.8748,2.877,2.8792,2.8595,2.8598,2.8601,2.8744,0,2.7901,2.8044,2.805,2.818,2.8249,2.8229,2.83,2.8345,2.8364,2.8425,2.8446,2.8516,2.8476,2.85,2.8555,2.858,2.8659,2.857,2.8661,2.8664,2.8649,2.8817,2.8841,2.8973,2.8762,2.8765,2.8767,0,2.8078,2.8134,2.8272,2.8322,2.8351,2.8415,2.848,2.8538,2.8588,2.8598,2.8643,2.8637,2.8721,2.8662,2.8779,2.8719,2.8756,2.8774,2.8779,2.8789,2.8723,2.8833,2.9015,2.9036,2.8796,2.8794,2.8792,0,2.8185,2.8296,2.8393,2.8421,2.8481,2.8527,2.8554,2.8601,2.8643,2.87,2.8727,2.8793,2.883,2.8882,2.8893,2.8849,2.9011,2.8953,2.9023,2.9023,2.9059,2.9057,2.9252,2.908,2.908,2.908,2.9079,0,2.8336,2.8422,2.8442,2.8502,2.8598,2.8603,2.8697,2.8721,2.8763,2.8828,2.8814,2.8875,2.8886,2.895,2.896,2.9056,2.9072,2.9084,2.9085,2.9086,2.9085,2.9112,2.9103,2.9085,2.9084,2.9083,2.9082,0,2.8474,2.849,2.8595,2.8643,2.8658,2.8726,2.8768,2.8825,2.8842,2.8925,2.8944,2.8972,2.9046,2.9063,2.9151,2.9157,2.9272,2.9264,2.9256,2.9255,2.9325,2.9319,2.9545,2.9576,2.9383,2.9385,2.9386,0,2.857,2.8635,2.869,2.8732,2.8762,2.883,2.8873,2.888,2.8926,2.8988,2.9039,2.9111,2.917,2.929,2.9319,2.9387,2.9381,2.9456,2.9391,2.939,2.9384,2.9381,2.9388,2.9469,2.9471,2.9472,2.9474,0,2.8739,2.8744,2.8806,2.8872,2.8923,2.8975,2.9024,2.906,2.9074,2.9126,2.9202,2.9247,2.9338,2.9411,2.9479,2.9507,2.9494,2.9493,2.9514,2.9516,2.9509,2.9515,2.9291,2.9489,2.9487,2.9486,2.9485,2.9485,2.886,2.8917,2.8965,2.9035,2.9073,2.9119,2.9176,2.9201,2.9264,2.9338,2.9338,2.9422,2.9471,2.956,2.9593,2.9659,2.9636,2.9665,2.9672,2.968,2.9687,2.9497,2.9671,2.9671,2.967,2.967,2.967,0,2.903,2.9059,2.9123,2.9193,2.9248,2.9229,2.9283,2.9331,2.9404,2.9451,2.9509,2.9596,2.9667,2.9701,2.9771,2.9818,2.9813,2.9836,2.9834,2.9841,2.9703,2.9679,2.9838,2.9838,2.9838,2.9838,2.9838,2.9838,2.9125,2.9221,2.9232,2.9348,2.9377,2.9458,2.9491,2.9534,2.9571,2.967,2.9729,2.975,2.9792,2.9865,2.9929,2.9937,2.9965,2.9991,2.9996,2.9867,2.985,2.9834,2.9812,2.9996,2.9997,3.0129,3.013,3.0131]}]]